665 visiteurs
Prévisions de votre ville :
Vigilance : 19 départements Mise à jour le 11/11/2019 à 16:09 - Voir la carte

Paris Roissy CDG (95380) le 11/11/2019 à 23:30 Choisir station

5°C 87 % O Vit. moyenne 15 kmh/h

Relevés météo quotidiens pour la station de :

UTC
S: Synop
M: Metar
Loc T°C
(°C)
Td
(°C)
HR
(%)
Vis
(km)
Néb
(octa)
Vent
(km/h)
Pression
(mb)
Précipitations
(mm)
Temps
              MOY
10 min
DIR RAF 1h MESURE VAR SUR 3h    
S 00 h 02h 21.2 17.4 79 60 - 7 17 1018.4 +0.7/3h 0.0/6h - 0.0/3h -
S 01 h 03h 20.4 17.4 83 55 - 4 7 1018.2 -0.1/3h 0.0/1h -
S 02 h 04h 19.5 17.6 89 45 - 7 13 1018.1 -0.5/3h 0.0/1h -
S 03 h 05h 18.6 17.4 93 30 - 9 11 1018.1 -0.3/3h 0.0/3h -
S 04 h 06h 19.2 17.9 92 29 7/8 7 15 1018.1 -0.1/3h 0.0/1h
S 05 h 07h 18.9 17.7 93 26 8/8 6 9 1018.1 0.0/3h 0.0/1h
S 06 h 08h 18.8 17.6 93 22 8/8 9 20 1018.6 +0.5/3h 0.0/12h - 0.0/3h - 0.0/24h
S 07 h 09h 19.1 17.4 90 22 8/8 11 20 1018.8 +0.7/3h 0.0/1h
S 08 h 10h 21.2 17.6 80 25 7/8 7 24 1018.7 +0.6/3h 0.0/1h
S 09 h 11h 23.0 17.5 71 26 - 4 9 1018.5 0.0/3h 0.0/3h -
S 10 h 12h 24.6 17.1 63 55 - 9 22 1018.4 -0.3/3h 0.0/1h -
S 11 h 13h 27.1 16.7 53 60 - 11 24 1018.0 -0.5/3h 0.0/1h -
S 12 h 14h 28.3 15.2 45 60 - 11 37 1017.4 -1.0/3h 0.0/6h - 0.0/3h -
S 13 h 15h 29.7 11.7 33 60 - 13 33 1016.4 -1.8/3h 0.0/1h -
S 14 h 16h 30.0 13.7 37 60 - 6 15 1015.7 -2.2/3h 0.0/1h -
S 15 h 17h 30.4 12.8 34 60 - 9 26 1015.4 -1.9/3h 0.0/3h -
S 16 h 18h 30.5 13.3 35 60 - 9 22 1014.6 -1.8/3h 0.0/1h -
S 17 h 19h 30.2 12.6 34 40 - 13 24 1013.9 -1.8/3h 0.0/1h -
S 18 h 20h 29.6 13.4 37 45 - 13 24 1013.7 -1.7/3h 0.0/12h - 0.0/3h -
S 19 h 21h 28.8 12.7 37 55 - 13 22 1013.4 -1.2/3h 0.0/1h -
S 20 h 22h 26.9 13.3 43 60 - 9 19 1013.6 -0.4/3h 0.0/1h -
S 21 h 23h 24.4 14.2 53 45 - 6 17 1013.9 +0.1/3h 0.0/3h -
S 22 h 00h 23.2 13.9 56 55 - 7 11 1014.4 +0.8/3h 0.0/1h -
S 23 h 01h 21.3 14.0 63 55 - 4 6 1014.5 +0.8/3h 0.0/1h -
evolution des temperatures
cumul des precipitations
vent moyen et rafales
pression atmospherique

Un tiret (-) signifie que les données ne sont pas disponibles.

Passez la souris sur les pictos temps pour avoir plus de précisions. Passez les flèches sur l'icône de la direction du vent pour voir la direction précise en degrés.

Les données de l'heure en cours sont disponibles à partir de H+15 minutes.


S signifie station Synop, plus complète qu'une station Metar (M). Il y a +1h de différence entre l'heure UTC et l'heure légale en hiver et +2h en été.

Td est la mesure du point de rosée.

HR est l'humidité relative/p>

Vis est la visibilité

Néb est la nébulosité du ciel (couverture nuageuse) exprimée en octas (de 0/8 à 8/8).

Vent moy 10 min donne le vent moyen sur les 10 minutes qui précèdent le relevé.

Vent raf 1h donne la rafale maximale mesurée dans l'heure qui précède le relevé.


Les données les plus anciennes remontent à avril 2014.

Les données présentées sur cette page proviennent des stations météo officielles. Les relevés sont effectués aux normes en vigueur (anémomètre à 10m de haut, thermomètre sous abri normalisé à 2m du sol...)

Météo 60 décline toute responsabilité en cas d'absence de données, d'erreurs, de mauvaise utilisation ou interprétation et n'est pas habilité à fournir des certificats intempéries.